When you browse on this site, cookies collect data to enhance your experience and personalize the content and advertising you see.
Visit our Privacy Policy to learn more. By continuing to use the site, you agree to this use of cookies and data.
  • In France
  • List of Countries
  • For 7 days
  • Water Temperature
  • Satellite Maps
  • Weather Map
  • Weather Widgets
  • user-avatar
    Login

    Hourly Weather Lezhe

    Today, 23 January, Wednesday

    Time Temperature Precipitation Wind Pressure Humidity
    00:00 +7°C° 0.8 mm 3 mps 728 mmHg 90%
    01:00 +6°C° 0 mm 4 mps 728 mmHg 91%
    02:00 +5°C° 1 mm 3 mps 727 mmHg 91%
    03:00 +5°C° 1 mm 3 mps 727 mmHg 91%
    04:00 +5°C° 1 mm 3 mps 727 mmHg 91%
    05:00 +5°C° 0.8 mm 3 mps 727 mmHg 89%
    06:00 +5°C° 0.8 mm 3 mps 726 mmHg 87%
    07:00 +5°C° 0 mm 3 mps 726 mmHg 85%
    08:00 +7°C° 0.2 mm 3 mps 726 mmHg 82%
    09:00 +8°C° 0.2 mm 3 mps 726 mmHg 79%
    10:00 +8°C° 0.2 mm 3 mps 726 mmHg 75%
    11:00 +9°C° 0.1 mm 2 mps 725 mmHg 73%
    12:00 +9°C° 0.1 mm 2 mps 725 mmHg 71%
    13:00 +10°C° 0.1 mm 2 mps 724 mmHg 69%
    14:00 +10°C° 0.1 mm 1 mps 724 mmHg 72%
    15:00 +9°C° 0.1 mm 1 mps 723 mmHg 75%
    16:00 +8°C° 0.1 mm 0 mps 723 mmHg 78%
    17:00 +8°C° 0.1 mm 1 mps 722 mmHg 79%
    18:00 +8°C° 0.1 mm 1 mps 722 mmHg 81%
    19:00 +7°C° 0.1 mm 1 mps 721 mmHg 82%
    20:00 +7°C° 0.1 mm 1 mps 721 mmHg 82%
    21:00 +7°C° 0.1 mm 1 mps 721 mmHg 82%
    22:00 +7°C° 0.1 mm 1 mps 721 mmHg 82%
    23:00 +7°C° 0.1 mm 1 mps 721 mmHg 82%

    Tomorrow, 24 January, Thursday

    Time Temperature Precipitation Wind Pressure Humidity
    00:00 +6°C° 0.1 mm 1 mps 721 mmHg 82%
    01:00 +6°C° 0.1 mm 1 mps 720 mmHg 83%
    02:00 +6°C° 0.2 mm 1 mps 720 mmHg 83%
    03:00 +6°C° 0.2 mm 1 mps 720 mmHg 83%
    04:00 +6°C° 0.2 mm 1 mps 720 mmHg 84%
    05:00 +6°C° 0.5 mm 1 mps 720 mmHg 86%
    06:00 +6°C° 0.5 mm 1 mps 720 mmHg 88%
    07:00 +6°C° 0.5 mm 1 mps 720 mmHg 90%
    08:00 +6°C° 0.1 mm 1 mps 721 mmHg 87%
    09:00 +7°C° 0.1 mm 1 mps 721 mmHg 84%
    10:00 +8°C° 0.1 mm 1 mps 721 mmHg 81%
    11:00 +8°C° 0 mm 1 mps 721 mmHg 76%
    12:00 +9°C° 0 mm 1 mps 721 mmHg 72%
    13:00 +10°C° 0 mm 1 mps 721 mmHg 67%
    14:00 +8°C° 0 mm 2 mps 722 mmHg 69%
    15:00 +8°C° 0 mm 2 mps 722 mmHg 71%
    16:00 +8°C° 0 mm 2 mps 722 mmHg 73%
    17:00 +7°C° 0 mm 3 mps 722 mmHg 74%
    18:00 +5°C° 0 mm 3 mps 722 mmHg 75%
    19:00 +3°C° 0 mm 4 mps 722 mmHg 76%
    20:00 +2°C° 0 mm 5 mps 722 mmHg 74%
    21:00 +2°C° 0 mm 5 mps 722 mmHg 73%
    22:00 +2°C° 0 mm 5 mps 721 mmHg 71%
    23:00 +2°C° 0 mm 6 mps 721 mmHg 71%

    Day after tomorrow, 25 January, Friday

    Time Temperature Precipitation Wind Pressure Humidity
    00:00 +2°C° 0 mm 6 mps 721 mmHg 70%
    01:00 +2°C° 0 mm 7 mps 721 mmHg 69%
    02:00 +2°C° 0.4 mm 6 mps 721 mmHg 71%
    03:00 +2°C° 0.4 mm 5 mps 721 mmHg 73%
    04:00 +3°C° 0.4 mm 3 mps 721 mmHg 75%
    05:00 +1°C° 0.3 mm 4 mps 721 mmHg 77%
    06:00 +1°C° 0.3 mm 4 mps 721 mmHg 78%
    07:00 +1°C° 0.3 mm 5 mps 721 mmHg 80%
    08:00 +1°C° 0.3 mm 5 mps 722 mmHg 79%
    09:00 +3°C° 0.3 mm 4 mps 722 mmHg 79%
    10:00 +3°C° 0.3 mm 4 mps 723 mmHg 78%
    11:00 +3°C° 0.2 mm 4 mps 722 mmHg 76%
    12:00 +4°C° 0.2 mm 4 mps 722 mmHg 74%
    13:00 +5°C° 0.2 mm 4 mps 722 mmHg 72%
    14:00 +4°C° 0.2 mm 4 mps 722 mmHg 73%
    15:00 +4°C° 0.2 mm 4 mps 723 mmHg 74%
    16:00 +3°C° 0.2 mm 4 mps 723 mmHg 75%
    17:00 +3°C° 0 mm 4 mps 723 mmHg 75%
    18:00 +1°C° 0 mm 4 mps 724 mmHg 75%
    19:00 +1°C° 0 mm 4 mps 724 mmHg 75%
    20:00 +1°C° 0 mm 4 mps 724 mmHg 75%
    21:00 0°C° 0 mm 4 mps 725 mmHg 75%
    22:00 0°C° 0 mm 4 mps 725 mmHg 75%
    23:00 0°C° 0 mm 4 mps 725 mmHg 74%

    26 January, Saturday

    Time Temperature Precipitation Wind Pressure Humidity
    00:00 +1°C° 0 mm 3 mps 725 mmHg 74%
    01:00 +1°C° 0 mm 3 mps 725 mmHg 74%
    02:00 -1°C° 0 mm 4 mps 725 mmHg 73%
    03:00 -1°C° 0 mm 4 mps 725 mmHg 73%
    04:00 -1°C° 0 mm 4 mps 725 mmHg 73%
    05:00 -1°C° 0 mm 4 mps 726 mmHg 73%
    06:00 -1°C° 0 mm 4 mps 726 mmHg 72%
    07:00 -1°C° 0 mm 4 mps 726 mmHg 72%
    08:00 0°C° 0 mm 4 mps 726 mmHg 68%
    09:00 +3°C° 0 mm 4 mps 727 mmHg 65%
    10:00 +4°C° 0 mm 4 mps 727 mmHg 61%
    11:00 +5°C° 0 mm 4 mps 727 mmHg 60%
    12:00 +5°C° 0 mm 4 mps 727 mmHg 60%
    13:00 +6°C° 0 mm 4 mps 727 mmHg 59%
    14:00 +5°C° 0 mm 4 mps 727 mmHg 61%
    15:00 +5°C° 0 mm 4 mps 728 mmHg 63%
    16:00 +4°C° 0 mm 4 mps 728 mmHg 65%
    17:00 +3°C° 0 mm 4 mps 728 mmHg 67%
    18:00 +1°C° 0 mm 4 mps 729 mmHg 69%
    19:00 0°C° 0 mm 4 mps 729 mmHg 72%
    20:00 0°C° 0 mm 4 mps 729 mmHg 72%
    21:00 +1°C° 0 mm 3 mps 730 mmHg 72%
    22:00 0°C° 0 mm 3 mps 730 mmHg 73%
    23:00 0°C° 0 mm 3 mps 730 mmHg 73%

    27 January, Sunday

    Time Temperature Precipitation Wind Pressure Humidity
    00:00 0°C° 0 mm 3 mps 730 mmHg 73%
    01:00 0°C° 0 mm 3 mps 730 mmHg 73%
    02:00 0°C° 0 mm 3 mps 730 mmHg 73%
    03:00 -1°C° 0 mm 3 mps 730 mmHg 73%
    04:00 -1°C° 0 mm 3 mps 730 mmHg 73%
    05:00 -1°C° 0 mm 3 mps 730 mmHg 73%
    06:00 -1°C° 0 mm 2 mps 730 mmHg 72%
    07:00 -1°C° 0 mm 2 mps 730 mmHg 71%
    08:00 +2°C° 0 mm 2 mps 729 mmHg 67%
    09:00 +4°C° 0 mm 2 mps 729 mmHg 62%
    10:00 +6°C° 0 mm 1 mps 729 mmHg 57%
    11:00 +7°C° 0 mm 1 mps 729 mmHg 55%
    12:00 +8°C° 0 mm 1 mps 729 mmHg 53%
    13:00 +9°C° 0 mm 1 mps 728 mmHg 51%
    14:00 +8°C° 0 mm 1 mps 728 mmHg 55%
    15:00 +8°C° 0 mm 1 mps 728 mmHg 59%
    16:00 +6°C° 0 mm 0 mps 728 mmHg 63%
    17:00 +6°C° 0 mm 1 mps 728 mmHg 65%
    18:00 +5°C° 0 mm 1 mps 729 mmHg 68%
    19:00 +4°C° 0 mm 1 mps 729 mmHg 70%
    20:00 +4°C° 0 mm 1 mps 730 mmHg 71%
    21:00 +3°C° 0 mm 2 mps 730 mmHg 71%
    22:00 +2°C° 0 mm 2 mps 730 mmHg 72%
    23:00 +2°C° 0 mm 2 mps 730 mmHg 71%

    28 January, Monday

    Time Temperature Precipitation Wind Pressure Humidity
    00:00 +2°C° 0 mm 2 mps 730 mmHg 70%
    01:00 +2°C° 0 mm 2 mps 730 mmHg 69%
    02:00 +2°C° 0 mm 2 mps 730 mmHg 69%
    03:00 +1°C° 0 mm 3 mps 730 mmHg 69%
    04:00 +1°C° 0 mm 3 mps 730 mmHg 69%
    05:00 +2°C° 0 mm 3 mps 730 mmHg 69%
    06:00 +3°C° 0 mm 2 mps 730 mmHg 70%
    07:00 +3°C° 0 mm 2 mps 730 mmHg 70%
    08:00 +5°C° 0 mm 2 mps 730 mmHg 68%
    09:00 +6°C° 0 mm 2 mps 730 mmHg 65%
    10:00 +7°C° 0 mm 2 mps 730 mmHg 63%
    11:00 +7°C° 0.3 mm 2 mps 729 mmHg 65%
    12:00 +8°C° 0.3 mm 3 mps 729 mmHg 67%
    13:00 +8°C° 0.3 mm 3 mps 729 mmHg 69%
    14:00 +7°C° 0.7 mm 3 mps 729 mmHg 72%
    15:00 +7°C° 0.7 mm 3 mps 729 mmHg 75%
    16:00 +5°C° 0.7 mm 3 mps 729 mmHg 78%
    17:00 +5°C° 0.8 mm 3 mps 729 mmHg 79%
    18:00 +5°C° 0.8 mm 3 mps 729 mmHg 81%
    19:00 +4°C° 0.8 mm 3 mps 729 mmHg 82%
    20:00 +4°C° 0.4 mm 3 mps 729 mmHg 81%
    21:00 +5°C° 0.4 mm 3 mps 729 mmHg 80%
    22:00 +5°C° 0.4 mm 3 mps 729 mmHg 80%
    23:00 +4°C° 0 mm 4 mps 729 mmHg 78%
    Show more